DW2047 Weather Reports


time (UTC)temp
C
wind
direction
speed
KPH
gust
KPH
rain 1hr
cm
rain 24hr
cm
rain mn
cm
humidity
%
barometer
mb
20260831015049 31 128 0.0 0.0 0.00 0.00 0.00 50 1012.8
20260831014601 31 128 0.0 0.0 0.00 0.00 0.00 50 1012.7
20260831014037 31 128 0.0 0.0 0.00 0.00 0.00 49 1012.6
20260831013514 31 128 0.0 0.0 0.00 0.00 0.00 49 1012.6
20260831013025 32 128 0.0 1.6 0.00 0.00 0.00 48 1012.6
20260831012502 32 128 0.0 1.6 0.00 0.00 0.00 47 1012.5
20260831012042 32 128 0.0 3.2 0.00 0.00 0.00 47 1012.5
20260831011557 32 128 0.0 3.2 0.00 0.00 0.00 46 1012.4
20260831011029 32 128 0.0 4.8 0.00 0.00 0.00 46 1012.4
20260831010506 32 128 0.0 4.8 0.00 0.00 0.00 45 1012.4
20260831010030 33 128 0.0 8.0 0.00 0.00 0.00 45 1012.4
20260831005601 33 128 0.0 8.0 0.00 0.00 0.00 45 1012.4
20260831005036 33 122 1.6 6.4 0.00 0.00 0.00 44 1012.3
20260831004545 33 122 1.6 6.4 0.00 0.00 0.00 43 1012.3
20260831004022 33 122 0.0 6.4 0.00 0.00 0.00 43 1012.3
20260831003604 33 123 1.6 6.4 0.00 0.00 0.00 43 1012.4
20260831003007 34 170 1.6 11.3 0.00 0.00 0.00 43 1012.3
20260831002549 34 139 1.6 8.0 0.00 0.00 0.00 43 1012.2
20260831002026 34 139 3.2 8.0 0.00 0.00 0.00 42 1012.2
20260831001537 34 139 0.0 3.2 0.00 0.00 0.00 42 1012.2
20260831001015 34 139 0.0 4.8 0.00 0.00 0.00 42 1012.3
20260831000556 35 139 0.0 11.3 0.00 0.00 0.00 42 1012.3
20260831000009 35 145 3.2 17.7 0.00 0.00 0.00 42 1012.4
20260830235544 35 142 6.4 17.7 0.00 0.00 0.00 41 1012.4
20260830235023 35 138 3.2 9.7 0.00 0.00 0.00 42 1012.4
20260830234543 35 122 1.6 8.0 0.00 0.00 0.00 42 1012.3
20260830234013 35 174 0.0 4.8 0.00 0.00 0.00 42 1012.4
20260830233551 35 174 1.6 12.9 0.00 0.00 0.00 41 1012.3
20260830233103 35 155 6.4 12.9 0.00 0.00 0.00 40 1012.3
20260830232540 35 140 4.8 14.5 0.00 0.00 0.00 40 1012.4
20260830232019 35 120 1.6 14.5 0.00 0.00 0.00 40 1012.4
20260830231529 35 146 8.0 14.5 0.00 0.00 0.00 40 1012.3
20260830231010 36 76 1.6 14.5 0.00 0.00 0.00 40 1012.3
20260830230546 36 140 3.2 12.9 0.00 0.00 0.00 39 1012.4
20260830225534 36 70 3.2 17.7 0.00 0.00 0.00 40 1012.3
20260830225011 36 133 6.4 17.7 0.00 0.00 0.00 40 1012.3
20260830224523 36 169 8.0 16.1 0.00 0.00 0.00 40 1012.3
20260830224001 36 130 3.2 16.1 0.00 0.00 0.00 41 1012.4
20260830223543 36 127 6.4 19.3 0.00 0.00 0.00 41 1012.4
20260830223007 36 173 8.0 19.3 0.00 0.00 0.00 40 1012.4
20260830222549 36 158 3.2 16.1 0.00 0.00 0.00 40 1012.4
20260830222028 36 151 6.4 16.1 0.00 0.00 0.00 39 1012.5
20260830221544 36 129 6.4 16.1 0.00 0.00 0.00 41 1012.6
20260830221018 36 209 6.4 16.1 0.00 0.00 0.00 40 1012.6
20260830220601 36 145 6.4 16.1 0.00 0.00 0.00 39 1012.6
20260830220010 36 128 4.8 20.9 0.00 0.00 0.00 40 1012.6
20260830215553 36 140 8.0 20.9 0.00 0.00 0.00 40 1012.6
20260830215033 36 138 6.4 17.7 0.00 0.00 0.00 41 1012.7
20260830214545 36 142 4.8 19.3 0.00 0.00 0.00 40 1012.6
20260830214023 36 155 8.0 19.3 0.00 0.00 0.00 39 1012.7
20260830213604 36 138 1.6 20.9 0.00 0.00 0.00 42 1012.8
20260830213019 36 123 8.0 16.1 0.00 0.00 0.00 40 1012.9
20260830212555 36 136 3.2 12.9 0.00 0.00 0.00 39 1013.0
20260830212033 36 144 4.8 17.7 0.00 0.00 0.00 39 1013.0
20260830211547 36 187 6.4 17.7 0.00 0.00 0.00 39 1013.2
20260830211024 36 78 0.0 12.9 0.00 0.00 0.00 41 1013.2
20260830210502 36 76 4.8 16.1 0.00 0.00 0.00 41 1013.3
20260830210016 36 88 4.8 19.3 0.00 0.00 0.00 42 1013.3
20260830205559 36 205 1.6 19.3 0.00 0.00 0.00 41 1013.3
20260830205036 36 130 4.8 16.1 0.00 0.00 0.00 42 1013.5
20260830204550 36 129 6.4 17.7 0.00 0.00 0.00 43 1013.6
20260830204028 35 148 9.7 17.7 0.00 0.00 0.00 46 1013.6
20260830203507 35 134 6.4 16.1 0.00 0.00 0.00 44 1013.7
20260830203020 35 150 6.4 19.3 0.00 0.00 0.00 44 1013.7
20260830202604 35 146 12.9 19.3 0.00 0.00 0.00 43 1013.8
20260830202041 35 129 6.4 17.7 0.00 0.00 0.00 44 1014.0
20260830201610 36 159 11.3 17.7 0.00 0.00 0.00 41 1014.1
20260830201033 36 130 4.8 12.9 0.00 0.00 0.00 42 1014.0
20260830200512 35 188 4.8 20.9 0.00 0.00 0.00 43 1014.1
20260830200047 35 140 3.2 19.3 0.00 0.00 0.00 43 1014.2
20260830195504 35 174 8.0 19.3 0.00 0.00 0.00 42 1014.3
20260830195048 35 130 4.8 16.1 0.00 0.00 0.00 44 1014.3
20260830194611 35 206 3.2 17.7 0.00 0.00 0.00 45 1014.4
20260830194038 35 131 8.0 17.7 0.00 0.00 0.00 45 1014.5
20260830193513 35 218 3.2 19.3 0.00 0.00 0.00 46 1014.5
20260830193029 35 138 6.4 19.3 0.00 0.00 0.00 47 1014.6
20260830192503 35 130 6.4 14.5 0.00 0.00 0.00 46 1014.7
20260830192046 35 132 6.4 14.5 0.00 0.00 0.00 46 1014.8
20260830191604 35 140 4.8 17.7 0.00 0.00 0.00 46 1014.9
20260830191035 35 143 8.0 19.3 0.00 0.00 0.00 47 1014.9
20260830190511 34 144 4.8 19.3 0.00 0.00 0.00 49 1015.0
20260830190024 34 245 4.8 14.5 0.00 0.00 0.00 49 1015.0
20260830185501 34 190 3.2 14.5 0.00 0.00 0.00 49 1015.1
20260830185042 34 123 1.6 14.5 0.00 0.00 0.00 50 1015.2
20260830184555 33 136 3.2 19.3 0.00 0.00 0.00 52 1015.2
20260830184031 33 190 8.0 24.1 0.00 0.00 0.00 51 1015.3
20260830183509 33 124 6.4 19.3 0.00 0.00 0.00 51 1015.3
20260830183021 33 140 6.4 19.3 0.00 0.00 0.00 51 1015.4
20260830182604 33 126 8.0 16.1 0.00 0.00 0.00 51 1015.5
20260830182040 33 150 4.8 16.1 0.00 0.00 0.00 52 1015.5
20260830181556 33 161 4.8 16.1 0.00 0.00 0.00 53 1015.6
20260830181029 33 134 4.8 16.1 0.00 0.00 0.00 53 1015.8
20260830180506 33 226 6.4 22.5 0.00 0.00 0.00 54 1015.9
20260830180021 33 134 11.3 22.5 0.00 0.00 0.00 54 1016.1
20260830175601 32 143 3.2 17.7 0.00 0.00 0.00 56 1016.1
20260830175038 32 136 8.0 17.7 0.00 0.00 0.00 55 1016.3
20260830174559 32 136 6.4 17.7 0.00 0.00 0.00 56 1016.4
20260830174028 32 166 8.0 27.4 0.00 0.00 0.00 56 1016.5
20260830173508 32 130 6.4 17.7 0.00 0.00 0.00 56 1016.5
20260830173019 32 136 8.0 17.7 0.00 0.00 0.00 54 1016.6
20260830172601 32 153 3.2 14.5 0.00 0.00 0.00 56 1016.6
20260830172039 32 178 8.0 16.1 0.00 0.00 0.00 56 1016.8
20260830171552 32 138 6.4 14.5 0.00 0.00 0.00 57 1016.7
20260830171030 32 94 1.6 16.1 0.00 0.00 0.00 57 1016.9
20260830170506 32 138 1.6 12.9 0.00 0.00 0.00 57 1017.0
20260830170027 32 144 4.8 14.5 0.00 0.00 0.00 60 1017.0
20260830165601 31 124 4.8 19.3 0.00 0.00 0.00 58 1017.0
20260830165038 31 182 9.7 19.3 0.00 0.00 0.00 60 1017.0
20260830164600 31 123 4.8 12.9 0.00 0.00 0.00 62 1017.1
20260830164029 31 152 4.8 16.1 0.00 0.00 0.00 62 1017.1
20260830163505 31 126 8.0 16.1 0.00 0.00 0.00 61 1017.2
20260830163019 31 138 3.2 14.5 0.00 0.00 0.00 62 1017.2
20260830162601 31 171 3.2 16.1 0.00 0.00 0.00 62 1017.2
20260830162037 31 156 6.4 16.1 0.00 0.00 0.00 61 1017.2
20260830161551 30 209 0.0 14.5 0.00 0.00 0.00 63 1017.2
20260830161027 30 139 8.0 14.5 0.00 0.00 0.00 63 1017.3
20260830160504 30 136 3.2 12.9 0.00 0.00 0.00 65 1017.2
20260830160018 30 234 1.6 16.1 0.00 0.00 0.00 65 1017.1
20260830155558 30 148 4.8 16.1 0.00 0.00 0.00 65 1017.1
20260830155034 30 150 9.7 17.7 0.00 0.00 0.00 65 1017.1
20260830154550 30 146 9.7 17.7 0.00 0.00 0.00 66 1017.1
20260830154025 29 164 9.7 16.1 0.00 0.00 0.00 66 1017.1
20260830153501 29 132 6.4 14.5 0.00 0.00 0.00 68 1017.0
20260830153017 29 132 3.2 14.5 0.00 0.00 0.00 68 1017.0
20260830152555 28 159 3.2 14.5 0.00 0.00 0.00 70 1017.0
20260830152032 28 146 3.2 12.9 0.00 0.00 0.00 70 1017.0
20260830151550 28 150 4.8 11.3 0.00 0.00 0.00 71 1017.0
20260830151022 28 161 1.6 11.3 0.00 0.00 0.00 72 1016.9
20260830150600 28 193 3.2 11.3 0.00 0.00 0.00 74 1016.9
20260830150011 28 196 4.8 17.7 0.00 0.00 0.00 73 1016.9
20260830145551 28 157 4.8 17.7 0.00 0.00 0.00 75 1016.9
20260830145028 28 144 4.8 16.1 0.00 0.00 0.00 75 1016.9
20260830144545 27 152 4.8 14.5 0.00 0.00 0.00 76 1017.0
20260830144019 27 259 1.6 12.9 0.00 0.00 0.00 78 1016.9
20260830143601 27 220 4.8 16.1 0.00 0.00 0.00 78 1016.9
20260830143012 27 172 3.2 16.1 0.00 0.00 0.00 79 1017.0
20260830142553 27 148 3.2 12.9 0.00 0.00 0.00 80 1017.0
20260830142029 26 173 6.4 12.9 0.00 0.00 0.00 80 1017.0
20260830141544 26 200 4.8 12.9 0.00 0.00 0.00 81 1016.9
20260830141022 26 171 6.4 12.9 0.00 0.00 0.00 82 1016.9
20260830140604 26 142 6.4 14.5 0.00 0.00 0.00 82 1016.9
20260830140017 26 151 3.2 14.5 0.00 0.00 0.00 83 1016.8
20260830135555 26 153 4.8 12.9 0.00 0.00 0.00 84 1016.8
20260830135032 25 211 1.6 12.9 0.00 0.00 0.00 85 1016.8
20260830134547 25 151 4.8 11.3 0.00 0.00 0.00 86 1016.8
20260830134025 25 152 3.2 6.4 0.00 0.00 0.00 87 1016.7
20260830133502 25 204 1.6 6.4 0.00 0.00 0.00 87 1016.7
20260830133020 25 229 0.0 6.4 0.00 0.00 0.00 88 1016.7
20260830132554 24 194 0.0 6.4 0.00 0.00 0.00 88 1016.7
20260830132030 24 194 0.0 3.2 0.00 0.00 0.00 88 1016.5
20260830131546 24 150 0.0 4.8 0.00 0.00 0.00 89 1016.5
20260830131022 23 150 0.0 4.8 0.00 0.00 0.00 89 1016.4
20260830130603 23 186 0.0 0.0 0.00 0.00 0.00 89 1016.5
20260830130014 23 186 0.0 0.0 0.00 0.00 0.00 89 1016.5
20260830125557 23 186 0.0 0.0 0.00 0.00 0.00 89 1016.4
20260830125031 23 186 0.0 0.0 0.00 0.00 0.00 89 1016.4
20260830124543 23 186 0.0 0.0 0.00 0.00 0.00 89 1016.4
20260830124020 23 186 0.0 0.0 0.00 0.00 0.00 89 1016.3
20260830123601 23 186 0.0 0.0 0.00 0.00 0.00 89 1016.3
20260830123013 23 186 0.0 0.0 0.00 0.00 0.00 89 1016.2
20260830122554 23 186 0.0 0.0 0.00 0.00 0.00 88 1016.2
20260830122032 23 186 0.0 0.0 0.00 0.00 0.00 88 1016.1
20260830121547 23 186 0.0 0.0 0.00 0.00 0.00 88 1016.1
20260830121022 23 186 0.0 0.0 0.00 0.00 0.00 88 1016.0
20260830120607 23 186 0.0 0.0 0.00 0.00 0.00 88 1016.0
20260830120015 23 186 0.0 0.0 0.00 0.00 0.00 87 1016.0
20260830115557 23 186 0.0 0.0 0.00 0.00 0.00 87 1015.9
20260830115033 23 186 0.0 0.0 0.00 0.00 0.00 87 1015.8
20260830114550 23 186 0.0 0.0 0.00 0.00 0.00 86 1015.7
20260830114025 23 186 0.0 0.0 0.00 0.00 0.00 86 1015.8
20260830113502 23 186 0.0 0.0 0.00 0.00 0.00 85 1015.7
20260830113018 23 186 0.0 0.0 0.00 0.00 0.00 85 1015.7
20260830112559 23 186 0.0 0.0 0.00 0.00 0.00 84 1015.7
20260830112036 23 186 0.0 0.0 0.00 0.00 0.00 84 1015.8
20260830111552 24 186 0.0 0.0 0.00 0.00 0.00 84 1015.6
20260830111029 24 186 0.0 0.0 0.00 0.00 0.00 84 1015.6
20260830110506 24 186 0.0 0.0 0.00 0.00 0.00 84 1015.6
20260830110021 24 186 0.0 0.0 0.00 0.00 0.00 83 1015.6
20260830105602 24 186 0.0 0.0 0.00 0.00 0.00 83 1015.6
20260830105039 24 186 0.0 0.0 0.00 0.00 0.00 83 1015.6
20260830104555 24 186 0.0 0.0 0.00 0.00 0.00 82 1015.6
20260830104032 24 186 0.0 0.0 0.00 0.00 0.00 82 1015.5
20260830103507 25 186 0.0 0.0 0.00 0.00 0.00 81 1015.4
20260830103027 25 186 0.0 0.0 0.00 0.00 0.00 81 1015.4
20260830102500 25 186 0.0 0.0 0.00 0.00 0.00 81 1015.4
20260830102043 25 186 0.0 4.8 0.00 0.00 0.00 81 1015.4
20260830101558 25 186 0.0 4.8 0.00 0.00 0.00 81 1015.3
20260830101035 25 186 0.0 0.0 0.00 0.00 0.00 81 1015.3
20260830100511 25 186 0.0 0.0 0.00 0.00 0.00 80 1015.4
20260830100028 25 186 0.0 0.0 0.00 0.00 0.00 80 1015.4
20260830095505 25 186 0.0 0.0 0.00 0.00 0.00 79 1015.4
20260830095047 25 186 0.0 0.0 0.00 0.00 0.00 79 1015.3
20260830094603 25 186 0.0 0.0 0.00 0.00 0.00 78 1015.3
20260830094043 25 186 0.0 0.0 0.00 0.00 0.00 78 1015.3
20260830093515 25 186 0.0 1.6 0.00 0.00 0.00 78 1015.4
20260830093032 25 186 0.0 1.6 0.00 0.00 0.00 77 1015.4
20260830092509 25 193 0.0 3.2 0.00 0.00 0.00 77 1015.3
20260830092050 26 193 0.0 6.4 0.00 0.00 0.00 77 1015.4
20260830091505 26 193 1.6 6.4 0.00 0.00 0.00 77 1015.3
20260830091044 26 160 1.6 6.4 0.00 0.00 0.00 76 1015.3
20260830090518 26 153 0.0 4.8 0.00 0.00 0.00 76 1015.3
20260830090034 26 149 0.0 11.3 0.00 0.00 0.00 76 1015.4
20260830085511 26 176 0.0 0.0 0.00 0.00 0.00 76 1015.4
20260830085054 26 144 0.0 3.2 0.00 0.00 0.00 75 1015.4
20260830084505 26 144 0.0 8.0 0.00 0.00 0.00 75 1015.4
20260830084046 26 144 0.0 8.0 0.00 0.00 0.00 74 1015.3
20260830083523 26 146 3.2 6.4 0.00 0.00 0.00 74 1015.4
20260830083043 26 150 0.0 8.0 0.00 0.00 0.00 74 1015.4
20260830082520 26 150 0.0 14.5 0.00 0.00 0.00 73 1015.4
20260830082057 26 143 4.8 16.1 0.00 0.00 0.00 73 1015.5
20260830081514 26 137 9.7 16.1 0.00 0.00 0.00 73 1015.4
20260830081048 27 147 4.8 12.9 0.00 0.00 0.00 73 1015.4
20260830080525 27 157 4.8 16.1 0.00 0.00 0.00 72 1015.5
20260830080043 27 148 4.8 16.1 0.00 0.00 0.00 72 1015.5
20260830075521 27 154 6.4 16.1 0.00 0.00 0.00 73 1015.5
20260830075059 27 154 0.0 8.0 0.00 0.00 0.00 73 1015.5
20260830074511 27 148 0.0 6.4 0.00 0.00 0.00 73 1015.5
20260830074052 27 146 3.2 11.3 0.00 0.00 0.00 72 1015.6
20260830073529 27 142 6.4 12.9 0.00 0.00 0.00 72 1015.6
20260830073049 27 144 6.4 12.9 0.00 0.00 0.00 72 1015.6
20260830072525 27 153 6.4 12.9 0.00 0.00 0.00 72 1015.6
20260830072104 27 165 3.2 11.3 0.00 0.00 0.00 72 1015.6
20260830071518 27 148 0.0 11.3 0.00 0.00 0.00 72 1015.7
20260830071057 27 137 4.8 11.3 0.00 0.00 0.00 72 1015.7
20260830070534 27 153 3.2 11.3 0.00 0.00 0.00 71 1015.6
20260830070052 27 155 4.8 11.3 0.00 0.00 0.00 71 1015.7
20260830065529 27 142 3.2 8.0 0.00 0.00 0.00 71 1015.7
20260830065007 27 144 3.2 12.9 0.00 0.00 0.00 71 1015.7
20260830064524 28 148 3.2 12.9 0.00 0.00 0.00 70 1015.7
20260830064105 28 154 4.8 14.5 0.00 0.00 0.00 70 1015.7
20260830063541 28 155 6.4 14.5 0.00 0.00 0.00 69 1015.7
20260830063108 28 152 6.4 12.9 0.00 0.00 0.00 69 1015.6
20260830062536 28 160 6.4 16.1 0.00 0.00 0.00 69 1015.7
20260830062013 28 153 6.4 16.1 0.00 0.00 0.00 70 1015.7
20260830061531 28 157 6.4 14.5 0.00 0.00 0.00 70 1015.6
20260830061007 28 176 0.0 9.7 0.00 0.00 0.00 70 1015.7
20260830060548 28 142 1.6 11.3 0.00 0.00 0.00 70 1015.6
20260830060002 28 153 4.8 14.5 0.00 0.00 0.00 70 1015.6
20260830055548 28 142 1.6 12.9 0.00 0.00 0.00 70 1015.6
20260830055020 28 146 0.0 9.7 0.00 0.00 0.00 70 1015.6
20260830054538 28 151 1.6 9.7 0.00 0.00 0.00 70 1015.5
20260830054014 28 214 1.6 11.3 0.00 0.00 0.00 70 1015.5
20260830053555 28 151 3.2 11.3 0.00 0.00 0.00 70 1015.5
20260830053010 28 155 0.0 12.9 0.00 0.00 0.00 70 1015.6
20260830052551 28 163 4.8 12.9 0.00 0.00 0.00 70 1015.6
20260830052027 28 152 3.2 11.3 0.00 0.00 0.00 69 1015.6
20260830051546 28 149 4.8 11.3 0.00 0.00 0.00 69 1015.6
20260830051025 29 164 3.2 9.7 0.00 0.00 0.00 69 1015.5
20260830050604 29 154 4.8 9.7 0.00 0.00 0.00 68 1015.5
20260830050016 29 153 3.2 11.3 0.00 0.00 0.00 68 1015.5
20260830045558 29 163 0.0 11.3 0.00 0.00 0.00 67 1015.5
20260830045033 29 147 4.8 11.3 0.00 0.00 0.00 67 1015.5
20260830044553 29 144 4.8 11.3 0.00 0.00 0.00 67 1015.6
20260830044024 29 197 3.2 8.0 0.00 0.00 0.00 66 1015.5
20260830043603 29 155 3.2 9.7 0.00 0.00 0.00 65 1015.6
20260830043018 29 155 4.8 11.3 0.00 0.00 0.00 64 1015.6
20260830042559 29 159 4.8 11.3 0.00 0.00 0.00 64 1015.6
20260830042035 29 144 3.2 11.3 0.00 0.00 0.00 63 1015.7
20260830041607 29 157 4.8 14.5 0.00 0.00 0.00 63 1015.7
20260830041031 29 136 4.8 8.0 0.00 0.00 0.00 62 1015.6
20260830040506 29 140 3.2 6.4 0.00 0.00 0.00 61 1015.7
20260830040026 29 140 3.2 14.5 0.00 0.00 0.00 60 1015.6
20260830035502 29 150 4.8 14.5 0.00 0.00 0.00 60 1015.6
20260830035046 28 149 3.2 8.0 0.00 0.00 0.00 60 1015.6
20260830034603 28 148 3.2 11.3 0.00 0.00 0.00 61 1015.7
20260830034038 28 148 1.6 12.9 0.00 0.00 0.00 61 1015.7
20260830033515 27 144 1.6 12.9 0.00 0.00 0.00 63 1015.6
20260830033034 27 144 1.6 8.0 0.00 0.00 0.00 64 1015.6
20260830032511 27 144 0.0 0.0 0.00 0.00 0.00 65 1015.6
20260830032052 27 144 0.0 0.0 0.00 0.00 0.00 66 1015.5
20260830031509 27 144 0.0 1.6 0.00 0.00 0.00 63 1015.4
20260830031051 28 144 0.0 1.6 0.00 0.00 0.00 62 1015.3
20260830030526 28 144 0.0 3.2 0.00 0.00 0.00 61 1015.2
20260830030046 28 144 0.0 3.2 0.00 0.00 0.00 61 1015.3
20260830025523 28 144 0.0 1.6 0.00 0.00 0.00 60 1015.2
20260830025106 28 144 0.0 0.0 0.00 0.00 0.00 61 1015.2
20260830024518 28 144 0.0 0.0 0.00 0.00 0.00 60 1015.0
20260830024059 28 144 0.0 0.0 0.00 0.00 0.00 60 1015.0
20260830023536 28 144 0.0 1.6 0.00 0.00 0.00 59 1014.9
20260830023107 28 144 0.0 1.6 0.00 0.00 0.00 59 1014.8
20260830022532 28 144 0.0 1.6 0.00 0.00 0.00 59 1014.7
20260830022009 28 144 0.0 0.0 0.00 0.00 0.00 58 1014.6
20260830021528 29 144 0.0 0.0 0.00 0.00 0.00 59 1014.5
20260830021004 29 144 0.0 0.0 0.00 0.00 0.00 58 1014.3
20260830020545 30 144 0.0 0.0 0.00 0.00 0.00 57 1014.3
20260830020104 30 144 0.0 0.0 0.00 0.00 0.00 56 1014.3
20260830015541 30 144 0.0 0.0 0.00 0.00 0.00 56 1014.2